| time (UTC) | temp F | wind direction | speed MPH | gust MPH | rain 1hr in | rain 24hr in | rain mn in | humidity % | barometer mb |
| 20260509153935 | 59 | 43 | 3.0 | 6.0 | 0.00 | 0.00 | 0.00 | ||
| 20260509153526 | 59 | 22 | 6.0 | 12.0 | 0.00 | 0.00 | 0.00 | ||
| 20260509153124 | 59 | 29 | 3.0 | 8.0 | 0.00 | 0.00 | 0.00 | ||
| 20260509152723 | 59 | 60 | 3.0 | 7.0 | 0.00 | 0.00 | 0.00 | ||
| 20260509152322 | 59 | 42 | 4.0 | 7.0 | 0.00 | 0.00 | 0.00 | ||
| 20260509151919 | 59 | 55 | 4.0 | 6.0 | 0.00 | 0.00 | 0.00 | ||
| 20260509151518 | 59 | 342 | 2.0 | 4.0 | 0.00 | 0.00 | 0.00 | ||
| 20260509151116 | 59 | 19 | 1.0 | 4.0 | 0.00 | 0.00 | 0.00 | ||
| 20260509150715 | 58 | 24 | 4.0 | 7.0 | 0.00 | 0.00 | 0.00 | ||
| 20260509150313 | 58 | 31 | 7.0 | 10.0 | 0.00 | 0.00 | 0.00 | ||
| 20260509145910 | 58 | 31 | 6.0 | 10.0 | 0.00 | 0.00 | 0.00 | ||
| 20260509145502 | 59 | 15 | 3.0 | 8.0 | 0.00 | 0.00 | 0.00 | ||
| 20260509145101 | 59 | 3 | 5.0 | 9.0 | 0.00 | 0.00 | 0.00 | ||
| 20260509144700 | 59 | 0 | 4.0 | 7.0 | 0.00 | 0.00 | 0.00 | ||
| 20260509144257 | 59 | 0 | 3.0 | 8.0 | 0.00 | 0.00 | 0.00 | ||
| 20260509143856 | 58 | 1 | 3.0 | 6.0 | 0.00 | 0.00 | 0.00 | ||
| 20260509143455 | 59 | 6 | 5.0 | 8.0 | 0.00 | 0.00 | 0.00 | ||
| 20260509143052 | 59 | 0 | 4.0 | 9.0 | 0.00 | 0.00 | 0.00 | ||
| 20260509142650 | 59 | 18 | 6.0 | 10.0 | 0.00 | 0.00 | 0.00 | ||
| 20260509142249 | 60 | 11 | 1.0 | 9.0 | 0.00 | 0.00 | 0.00 | ||
| 20260509141847 | 59 | 11 | 4.0 | 10.0 | 0.00 | 0.00 | 0.00 | ||
| 20260509141439 | 59 | 345 | 5.0 | 9.0 | 0.00 | 0.00 | 0.00 | ||
| 20260509141036 | 59 | 359 | 3.0 | 7.0 | 0.00 | 0.00 | 0.00 | ||
| 20260509140635 | 59 | 341 | 4.0 | 8.0 | 0.00 | 0.00 | 0.00 | ||
| 20260509140234 | 60 | 2 | 2.0 | 4.0 | 0.00 | 0.00 | 0.00 | ||
| 20260509135833 | 59 | 24 | 4.0 | 8.0 | 0.00 | 0.00 | 0.00 | ||
| 20260509135432 | 59 | 20 | 4.0 | 7.0 | 0.00 | 0.00 | 0.00 | ||
| 20260509135029 | 59 | 34 | 5.0 | 8.0 | 0.00 | 0.00 | 0.00 | ||
| 20260509134628 | 59 | 30 | 4.0 | 8.0 | 0.00 | 0.00 | 0.00 | ||
| 20260509134227 | 59 | 31 | 5.0 | 10.0 | 0.00 | 0.00 | 0.00 | ||
| 20260509133825 | 59 | 54 | 6.0 | 10.0 | 0.00 | 0.00 | 0.00 | ||
| 20260509133416 | 59 | 47 | 6.0 | 10.0 | 0.00 | 0.00 | 0.00 | ||
| 20260509133014 | 60 | 51 | 5.0 | 9.0 | 0.00 | 0.00 | 0.00 | ||
| 20260509132613 | 60 | 338 | 3.0 | 6.0 | 0.00 | 0.00 | 0.00 | ||
| 20260509132212 | 60 | 0 | 6.0 | 10.0 | 0.00 | 0.00 | 0.00 | ||
| 20260509131809 | 61 | 344 | 3.0 | 7.0 | 0.00 | 0.00 | 0.00 | ||
| 20260509131408 | 61 | 327 | 2.0 | 4.0 | 0.00 | 0.00 | 0.00 | ||
| 20260509131006 | 60 | 343 | 4.0 | 6.0 | 0.00 | 0.00 | 0.00 | ||
| 20260509130605 | 61 | 331 | 3.0 | 7.0 | 0.00 | 0.00 | 0.00 | ||
| 20260509130203 | 62 | 342 | 2.0 | 4.0 | 0.00 | 0.00 | 0.00 | ||
| 20260509125801 | 61 | 343 | 2.0 | 6.0 | 0.00 | 0.00 | 0.00 | ||
| 20260509125353 | 61 | 352 | 4.0 | 8.0 | 0.00 | 0.00 | 0.00 | ||
| 20260509124951 | 60 | 357 | 2.0 | 6.0 | 0.00 | 0.00 | 0.00 | ||
| 20260509124550 | 59 | 329 | 2.0 | 6.0 | 0.00 | 0.00 | 0.00 | ||
| 20260509124148 | 61 | 339 | 3.0 | 5.0 | 0.00 | 0.00 | 0.00 | ||
| 20260509123746 | 61 | 354 | 3.0 | 9.0 | 0.00 | 0.00 | 0.00 | ||
| 20260509123345 | 60 | 352 | 2.0 | 7.0 | 0.00 | 0.00 | 0.00 | ||
| 20260509122943 | 61 | 310 | 2.0 | 5.0 | 0.00 | 0.00 | 0.00 | ||
| 20260509122541 | 59 | 323 | 4.0 | 7.0 | 0.00 | 0.00 | 0.00 | ||
| 20260509122140 | 60 | 321 | 4.0 | 9.0 | 0.00 | 0.00 | 0.00 | ||
| 20260509121739 | 60 | 3 | 5.0 | 8.0 | 0.00 | 0.00 | 0.00 | ||
| 20260509121331 | 61 | 12 | 4.0 | 8.0 | 0.00 | 0.00 | 0.00 | ||
| 20260509120928 | 61 | 8 | 2.0 | 5.0 | 0.00 | 0.00 | 0.00 | ||
| 20260509120527 | 60 | 39 | 4.0 | 6.0 | 0.00 | 0.00 | 0.00 | ||
| 20260509120126 | 61 | 355 | 2.0 | 4.0 | 0.00 | 0.00 | 0.00 | ||
| 20260509115724 | 61 | 8 | 1.0 | 4.0 | 0.00 | 0.00 | 0.00 | ||
| 20260509115322 | 60 | 350 | 3.0 | 5.0 | 0.00 | 0.00 | 0.00 | ||
| 20260509114920 | 61 | 14 | 3.0 | 6.0 | 0.00 | 0.00 | 0.00 | ||
| 20260509114519 | 60 | 67 | 0.0 | 2.0 | 0.00 | 0.00 | 0.00 | ||
| 20260509114118 | 60 | 14 | 4.0 | 7.0 | 0.00 | 0.00 | 0.00 | ||
| 20260509113716 | 61 | 5 | 2.0 | 7.0 | 0.00 | 0.00 | 0.00 | ||
| 20260509113307 | 60 | 13 | 5.0 | 9.0 | 0.00 | 0.00 | 0.00 | ||
| 20260509112905 | 60 | 70 | 6.0 | 9.0 | 0.00 | 0.00 | 0.00 | ||
| 20260509112103 | 62 | 1 | 1.0 | 4.0 | 0.00 | 0.00 | 0.00 | ||
| 20260509111700 | 61 | 5 | 2.0 | 6.0 | 0.00 | 0.00 | 0.00 | ||
| 20260509111259 | 60 | 46 | 3.0 | 6.0 | 0.00 | 0.00 | 0.00 | ||
| 20260509110857 | 61 | 56 | 3.0 | 7.0 | 0.00 | 0.00 | 0.00 | ||
| 20260509110456 | 61 | 8 | 4.0 | 7.0 | 0.00 | 0.00 | 0.00 | ||
| 20260509110054 | 61 | 18 | 4.0 | 7.0 | 0.00 | 0.00 | 0.00 | ||
| 20260509105652 | 61 | 12 | 2.0 | 6.0 | 0.00 | 0.00 | 0.00 | ||
| 20260509105244 | 60 | 0 | 1.0 | 4.0 | 0.00 | 0.00 | 0.00 | ||
| 20260509104843 | 60 | 67 | 2.0 | 4.0 | 0.00 | 0.00 | 0.00 | ||
| 20260509104440 | 60 | 65 | 6.0 | 9.0 | 0.00 | 0.00 | 0.00 | ||
| 20260509104040 | 61 | 20 | 5.0 | 10.0 | 0.00 | 0.00 | 0.00 | ||
| 20260509103638 | 63 | 66 | 4.0 | 8.0 | 0.00 | 0.00 | 0.00 | ||
| 20260509103237 | 62 | 326 | 2.0 | 6.0 | 0.00 | 0.00 | 0.00 | ||
| 20260509102835 | 62 | 20 | 0.0 | 2.0 | 0.00 | 0.00 | 0.00 | ||
| 20260509102433 | 61 | 52 | 2.0 | 5.0 | 0.00 | 0.00 | 0.00 | ||
| 20260509102032 | 61 | 333 | 2.0 | 4.0 | 0.00 | 0.00 | 0.00 | ||
| 20260509101630 | 61 | 292 | 2.0 | 3.0 | 0.00 | 0.00 | 0.00 | ||
| 20260509101222 | 59 | 299 | 3.0 | 6.0 | 0.00 | 0.00 | 0.00 | ||
| 20260509100819 | 59 | 18 | 3.0 | 5.0 | 0.00 | 0.00 | 0.00 | ||
| 20260509100418 | 59 | 357 | 3.0 | 6.0 | 0.00 | 0.00 | 0.00 | ||
| 20260509100017 | 59 | 315 | 0.0 | 2.0 | 0.00 | 0.00 | 0.00 | ||
| 20260509095615 | 59 | 315 | 1.0 | 4.0 | 0.00 | 0.00 | 0.00 | ||
| 20260509095213 | 59 | 17 | 2.0 | 4.0 | 0.00 | 0.00 | 0.00 | ||
| 20260509094811 | 58 | 19 | 3.0 | 5.0 | 0.00 | 0.00 | 0.00 | ||
| 20260509094410 | 58 | 9 | 4.0 | 7.0 | 0.00 | 0.00 | 0.00 | ||
| 20260509094009 | 58 | 357 | 3.0 | 6.0 | 0.00 | 0.00 | 0.00 | ||
| 20260509093606 | 59 | 338 | 0.0 | 2.0 | 0.00 | 0.00 | 0.00 | ||
| 20260509093158 | 61 | 338 | 1.0 | 4.0 | 0.00 | 0.00 | 0.00 | ||
| 20260509092756 | 60 | 338 | 2.0 | 4.0 | 0.00 | 0.00 | 0.00 | ||
| 20260509092356 | 59 | 338 | 1.0 | 3.0 | 0.00 | 0.00 | 0.00 | ||
| 20260509091955 | 58 | 338 | 3.0 | 4.0 | 0.00 | 0.00 | 0.00 | ||
| 20260509091551 | 58 | 316 | 2.0 | 4.0 | 0.00 | 0.00 | 0.00 | ||
| 20260509091151 | 58 | 296 | 3.0 | 7.0 | 0.00 | 0.00 | 0.00 | ||
| 20260509090749 | 57 | 292 | 2.0 | 5.0 | 0.00 | 0.00 | 0.00 | ||
| 20260509090348 | 56 | 318 | 4.0 | 7.0 | 0.00 | 0.00 | 0.00 | ||
| 20260509085946 | 56 | 339 | 2.0 | 4.0 | 0.00 | 0.00 | 0.00 | ||
| 20260509085544 | 56 | 340 | 3.0 | 7.0 | 0.00 | 0.00 | 0.00 | ||
| 20260509085136 | 56 | 330 | 2.0 | 6.0 | 0.00 | 0.00 | 0.00 | ||
| 20260509084734 | 56 | 302 | 3.0 | 6.0 | 0.00 | 0.00 | 0.00 | ||
| 20260509084332 | 56 | 315 | 3.0 | 5.0 | 0.00 | 0.00 | 0.00 | ||
| 20260509083931 | 56 | 339 | 4.0 | 9.0 | 0.00 | 0.00 | 0.00 | ||
| 20260509083529 | 57 | 338 | 2.0 | 4.0 | 0.00 | 0.00 | 0.00 | ||
| 20260509083128 | 57 | 296 | 2.0 | 4.0 | 0.00 | 0.00 | 0.00 | ||
| 20260509082725 | 59 | 338 | 1.0 | 4.0 | 0.00 | 0.00 | 0.00 | ||
| 20260509082324 | 57 | 354 | 4.0 | 7.0 | 0.00 | 0.00 | 0.00 | ||
| 20260509081923 | 56 | 344 | 3.0 | 6.0 | 0.00 | 0.00 | 0.00 | ||
| 20260509081521 | 56 | 9 | 2.0 | 5.0 | 0.00 | 0.00 | 0.00 | ||
| 20260509081113 | 56 | 316 | 3.0 | 6.0 | 0.00 | 0.00 | 0.00 | ||
| 20260509080309 | 58 | 340 | 2.0 | 4.0 | 0.00 | 0.00 | 0.00 | ||
| 20260509075908 | 57 | 0 | 1.0 | 4.0 | 0.00 | 0.00 | 0.00 | ||
| 20260509075506 | 57 | 12 | 2.0 | 5.0 | 0.00 | 0.00 | 0.00 | ||
| 20260509075103 | 56 | 354 | 4.0 | 7.0 | 0.00 | 0.00 | 0.00 | ||
| 20260509074701 | 56 | 357 | 2.0 | 4.0 | 0.00 | 0.00 | 0.00 | ||
| 20260509074300 | 55 | 339 | 4.0 | 7.0 | 0.00 | 0.00 | 0.00 | ||
| 20260509073859 | 58 | 25 | 2.0 | 4.0 | 0.00 | 0.00 | 0.00 | ||
| 20260509073456 | 56 | 16 | 5.0 | 9.0 | 0.00 | 0.00 | 0.00 | ||
| 20260509073048 | 57 | 20 | 4.0 | 8.0 | 0.00 | 0.00 | 0.00 | ||
| 20260509072646 | 56 | 15 | 4.0 | 7.0 | 0.00 | 0.00 | 0.00 | ||
| 20260509072245 | 56 | 58 | 7.0 | 9.0 | 0.00 | 0.00 | 0.00 | ||
| 20260509071843 | 56 | 27 | 7.0 | 9.0 | 0.00 | 0.00 | 0.00 | ||
| 20260509071441 | 56 | 27 | 4.0 | 9.0 | 0.00 | 0.00 | 0.00 | ||
| 20260509071040 | 56 | 356 | 2.0 | 4.0 | 0.00 | 0.00 | 0.00 | ||
| 20260509070637 | 55 | 28 | 3.0 | 6.0 | 0.00 | 0.00 | 0.00 | ||
| 20260509070236 | 55 | 12 | 4.0 | 8.0 | 0.00 | 0.00 | 0.00 | ||
| 20260509065834 | 55 | 334 | 4.0 | 7.0 | 0.00 | 0.00 | 0.00 | ||
| 20260509065432 | 55 | 345 | 4.0 | 5.0 | 0.00 | 0.00 | 0.00 | ||
| 20260509065024 | 55 | 351 | 3.0 | 7.0 | 0.00 | 0.00 | 0.00 | ||
| 20260509064623 | 56 | 343 | 2.0 | 5.0 | 0.00 | 0.00 | 0.00 | ||
| 20260509064220 | 55 | 23 | 4.0 | 8.0 | 0.00 | 0.00 | 0.00 | ||
| 20260509063820 | 55 | 42 | 6.0 | 9.0 | 0.00 | 0.00 | 0.00 | ||
| 20260509063418 | 56 | 16 | 2.0 | 4.0 | 0.00 | 0.00 | 0.00 | ||
| 20260509063017 | 56 | 356 | 1.0 | 4.0 | 0.00 | 0.00 | 0.00 | ||
| 20260509062614 | 55 | 347 | 2.0 | 4.0 | 0.00 | 0.00 | 0.00 | ||
| 20260509062213 | 55 | 29 | 5.0 | 6.0 | 0.00 | 0.00 | 0.00 | ||
| 20260509061812 | 55 | 0 | 1.0 | 5.0 | 0.00 | 0.00 | 0.00 | ||
| 20260509061410 | 54 | 34 | 5.0 | 7.0 | 0.00 | 0.00 | 0.00 | ||
| 20260509061001 | 54 | 36 | 8.0 | 11.0 | 0.00 | 0.00 | 0.00 | ||
| 20260509060559 | 54 | 51 | 5.0 | 8.0 | 0.00 | 0.00 | 0.00 | ||
| 20260509060158 | 54 | 13 | 4.0 | 7.0 | 0.00 | 0.00 | 0.00 | ||
| 20260509055757 | 53 | 40 | 7.0 | 9.0 | 0.00 | 0.00 | 0.00 | ||
| 20260509055355 | 54 | 1 | 3.0 | 8.0 | 0.00 | 0.00 | 0.00 | ||
| 20260509054953 | 53 | 17 | 4.0 | 7.0 | 0.00 | 0.00 | 0.00 | ||
| 20260509054551 | 53 | 31 | 4.0 | 7.0 | 0.00 | 0.00 | 0.00 | ||
| 20260509054150 | 53 | 45 | 4.0 | 7.0 | 0.00 | 0.00 | 0.00 | ||
| 20260509053749 | 54 | 26 | 1.0 | 5.0 | 0.00 | 0.00 | 0.00 | ||
| 20260509053346 | 53 | 21 | 1.0 | 3.0 | 0.00 | 0.00 | 0.00 | ||
| 20260509052938 | 53 | 26 | 1.0 | 3.0 | 0.00 | 0.00 | 0.00 | ||
| 20260509052536 | 53 | 28 | 2.0 | 4.0 | 0.00 | 0.00 | 0.00 | ||
| 20260509052136 | 52 | 41 | 5.0 | 7.0 | 0.00 | 0.00 | 0.00 | ||
| 20260509051734 | 52 | 37 | 4.0 | 5.0 | 0.00 | 0.00 | 0.00 | ||
| 20260509051332 | 52 | 41 | 4.0 | 6.0 | 0.00 | 0.00 | 0.00 | ||
| 20260509050930 | 52 | 67 | 2.0 | 4.0 | 0.00 | 0.00 | 0.00 | ||
| 20260509050528 | 53 | 67 | 0.0 | 0.0 | 0.00 | 0.00 | 0.00 | ||
| 20260509050126 | 52 | 67 | 2.0 | 4.0 | 0.00 | 0.00 | 0.00 | ||
| 20260509045725 | 52 | 67 | 1.0 | 2.0 | 0.00 | 0.00 | 0.00 | ||
| 20260509045323 | 52 | 67 | 0.0 | 2.0 | 0.00 | 0.00 | 0.00 | ||
| 20260509044916 | 52 | 67 | 0.0 | 1.0 | 0.00 | 0.00 | 0.00 | ||
| 20260509044514 | 52 | 67 | 0.0 | 0.0 | 0.00 | 0.00 | 0.00 | ||
| 20260509044112 | 52 | 67 | 0.0 | 0.0 | 0.00 | 0.00 | 0.00 | ||
| 20260509043711 | 52 | 67 | 0.0 | 2.0 | 0.00 | 0.00 | 0.00 | ||
| 20260509043309 | 52 | 67 | 0.0 | 2.0 | 0.00 | 0.00 | 0.00 | ||
| 20260509042908 | 53 | 67 | 0.0 | 0.0 | 0.00 | 0.00 | 0.00 | ||
| 20260509042505 | 52 | 67 | 0.0 | 2.0 | 0.00 | 0.00 | 0.00 | ||
| 20260509042104 | 52 | 67 | 0.0 | 0.0 | 0.00 | 0.00 | 0.00 | ||
| 20260509041703 | 52 | 67 | 0.0 | 0.0 | 0.00 | 0.00 | 0.00 | ||
| 20260509041301 | 51 | 67 | 0.0 | 2.0 | 0.00 | 0.00 | 0.00 | ||
| 20260509040852 | 51 | 67 | 1.0 | 4.0 | 0.00 | 0.00 | 0.00 | ||
| 20260509040450 | 51 | 67 | 0.0 | 0.0 | 0.00 | 0.00 | 0.00 | ||
| 20260509040049 | 51 | 67 | 1.0 | 3.0 | 0.00 | 0.00 | 0.00 | ||
| 20260509035648 | 51 | 81 | 2.0 | 3.0 | 0.00 | 0.00 | 0.00 | ||
| 20260509035245 | 51 | 90 | 1.0 | 2.0 | 0.00 | 0.00 | 0.00 | ||
| 20260509034844 | 51 | 90 | 1.0 | 3.0 | 0.00 | 0.00 | 0.00 | ||
| 20260509034041 | 51 | 90 | 1.0 | 3.0 | 0.00 | 0.00 | 0.00 | ||
| 20260509033640 | 51 | 90 | 1.0 | 2.0 | 0.00 | 0.00 | 0.00 | ||
| 20260509033237 | 51 | 90 | 1.0 | 2.0 | 0.00 | 0.00 | 0.00 | ||
| 20260509032829 | 51 | 90 | 0.0 | 0.0 | 0.00 | 0.00 | 0.00 | ||
| 20260509032428 | 51 | 90 | 1.0 | 2.0 | 0.00 | 0.00 | 0.00 | ||
| 20260509032027 | 51 | 90 | 1.0 | 3.0 | 0.00 | 0.00 | 0.00 | ||
| 20260509031624 | 51 | 90 | 1.0 | 2.0 | 0.00 | 0.00 | 0.00 | ||
| 20260509031223 | 51 | 90 | 1.0 | 4.0 | 0.00 | 0.00 | 0.00 | ||
| 20260509030822 | 51 | 90 | 0.0 | 2.0 | 0.00 | 0.00 | 0.00 | ||
| 20260509030420 | 51 | 90 | 0.0 | 0.0 | 0.00 | 0.00 | 0.00 | ||
| 20260509030018 | 51 | 90 | 3.0 | 4.0 | 0.00 | 0.00 | 0.00 | ||
| 20260509025617 | 51 | 90 | 3.0 | 4.0 | 0.00 | 0.00 | 0.00 | ||
| 20260509025215 | 51 | 90 | 2.0 | 4.0 | 0.00 | 0.00 | 0.00 | ||
| 20260509024807 | 51 | 55 | 2.0 | 4.0 | 0.00 | 0.00 | 0.00 | ||
| 20260509024404 | 51 | 45 | 2.0 | 4.0 | 0.00 | 0.00 | 0.00 | ||
| 20260509024003 | 51 | 45 | 2.0 | 4.0 | 0.00 | 0.00 | 0.00 | ||
| 20260509023602 | 51 | 45 | 2.0 | 4.0 | 0.00 | 0.00 | 0.00 | ||
| 20260509023200 | 51 | 22 | 2.0 | 4.0 | 0.00 | 0.00 | 0.00 | ||
| 20260509022759 | 51 | 0 | 0.0 | 2.0 | 0.00 | 0.00 | 0.00 | ||
| 20260509022356 | 51 | 0 | 1.0 | 2.0 | 0.00 | 0.00 | 0.00 | ||
| 20260509021955 | 51 | 0 | 1.0 | 3.0 | 0.00 | 0.00 | 0.00 | ||
| 20260509021554 | 51 | 0 | 0.0 | 2.0 | 0.00 | 0.00 | 0.00 | ||
| 20260509021152 | 52 | 0 | 0.0 | 0.0 | 0.00 | 0.00 | 0.00 | ||
| 20260509020743 | 52 | 0 | 0.0 | 2.0 | 0.00 | 0.00 | 0.00 | ||
| 20260509020341 | 52 | 0 | 0.0 | 2.0 | 0.00 | 0.00 | 0.00 | ||
| 20260509015539 | 52 | 0 | 0.0 | 2.0 | 0.00 | 0.00 | 0.00 | ||
| 20260509015136 | 51 | 0 | 0.0 | 1.0 | 0.00 | 0.00 | 0.00 | ||
| 20260509014735 | 51 | 0 | 0.0 | 2.0 | 0.00 | 0.00 | 0.00 | ||
| 20260509014334 | 52 | 0 | 0.0 | 1.0 | 0.00 | 0.00 | 0.00 | ||
| 20260509013933 | 52 | 21 | 0.0 | 2.0 | 0.00 | 0.00 | 0.00 | ||
| 20260509013530 | 51 | 0 | 2.0 | 3.0 | 0.00 | 0.00 | 0.00 | ||
| 20260509013129 | 51 | 0 | 1.0 | 2.0 | 0.00 | 0.00 | 0.00 | ||
| 20260509012721 | 51 | 5 | 3.0 | 4.0 | 0.00 | 0.00 | 0.00 | ||
| 20260509012319 | 52 | 0 | 1.0 | 3.0 | 0.00 | 0.00 | 0.00 | ||
| 20260509011918 | 51 | 1 | 1.0 | 3.0 | 0.00 | 0.00 | 0.00 | ||
| 20260509011516 | 51 | 16 | 2.0 | 6.0 | 0.00 | 0.00 | 0.00 | ||
| 20260509011114 | 52 | 0 | 0.0 | 1.0 | 0.00 | 0.00 | 0.00 | ||
| 20260509010713 | 52 | 0 | 1.0 | 2.0 | 0.00 | 0.00 | 0.00 | ||
| 20260509010311 | 51 | 0 | 2.0 | 3.0 | 0.00 | 0.00 | 0.00 | ||
| 20260509005909 | 52 | 355 | 2.0 | 5.0 | 0.00 | 0.00 | 0.00 | ||
| 20260509005508 | 51 | 0 | 1.0 | 4.0 | 0.00 | 0.00 | 0.00 | ||
| 20260509005106 | 51 | 4 | 3.0 | 6.0 | 0.00 | 0.00 | 0.00 | ||
| 20260509004658 | 51 | 6 | 2.0 | 6.0 | 0.00 | 0.00 | 0.00 | ||
| 20260509004255 | 51 | 359 | 2.0 | 4.0 | 0.00 | 0.00 | 0.00 | ||
| 20260509003854 | 52 | 0 | 3.0 | 7.0 | 0.00 | 0.00 | 0.00 | ||
| 20260509003453 | 51 | 353 | 3.0 | 6.0 | 0.00 | 0.00 | 0.00 | ||
| 20260509003051 | 51 | 7 | 3.0 | 5.0 | 0.00 | 0.00 | 0.00 | ||
| 20260509002649 | 52 | 356 | 3.0 | 7.0 | 0.00 | 0.00 | 0.00 | ||
| 20260509002247 | 52 | 2 | 1.0 | 4.0 | 0.00 | 0.00 | 0.00 | ||
| 20260509001846 | 52 | 2 | 2.0 | 6.0 | 0.00 | 0.00 | 0.00 | ||
| 20260509001445 | 52 | 21 | 1.0 | 2.0 | 0.00 | 0.00 | 0.00 | ||
| 20260509001044 | 52 | 1 | 3.0 | 4.0 | 0.00 | 0.00 | 0.00 | ||
| 20260509000634 | 52 | 359 | 2.0 | 5.0 | 0.00 | 0.00 | 0.00 | ||
| 20260509000233 | 52 | 8 | 4.0 | 8.0 | 0.00 | 0.00 | 0.00 | ||
| 20260508235831 | 52 | 0 | 3.0 | 8.0 | 0.00 | 0.00 | 0.00 | ||
| 20260508235430 | 52 | 2 | 4.0 | 6.0 | 0.00 | 0.00 | 0.00 | ||
| 20260508235026 | 52 | 2 | 4.0 | 7.0 | 0.00 | 0.00 | 0.00 | ||
| 20260508234625 | 52 | 12 | 3.0 | 6.0 | 0.00 | 0.00 | 0.00 | ||
| 20260508234223 | 52 | 18 | 4.0 | 8.0 | 0.00 | 0.00 | 0.00 | ||
| 20260508233822 | 52 | 18 | 4.0 | 8.0 | 0.00 | 0.00 | 0.00 | ||
| 20260508233420 | 52 | 11 | 2.0 | 5.0 | 0.00 | 0.00 | 0.00 | ||
| 20260508233018 | 52 | 0 | 3.0 | 5.0 | 0.00 | 0.00 | 0.00 | ||
| 20260508232610 | 52 | 358 | 2.0 | 4.0 | 0.00 | 0.00 | 0.00 | ||
| 20260508232208 | 52 | 356 | 2.0 | 5.0 | 0.00 | 0.00 | 0.00 | ||
| 20260508231806 | 53 | 345 | 2.0 | 5.0 | 0.00 | 0.00 | 0.00 | ||
| 20260508231405 | 52 | 357 | 3.0 | 6.0 | 0.00 | 0.00 | 0.00 | ||
| 20260508231003 | 52 | 0 | 3.0 | 7.0 | 0.00 | 0.00 | 0.00 | ||
| 20260508230602 | 53 | 355 | 3.0 | 6.0 | 0.00 | 0.00 | 0.00 | ||
| 20260508230200 | 53 | 358 | 3.0 | 5.0 | 0.00 | 0.00 | 0.00 | ||
| 20260508225758 | 53 | 353 | 2.0 | 5.0 | 0.00 | 0.00 | 0.00 | ||
| 20260508225357 | 53 | 2 | 3.0 | 6.0 | 0.00 | 0.00 | 0.00 | ||
| 20260508224955 | 53 | 0 | 2.0 | 5.0 | 0.00 | 0.00 | 0.00 | ||
| 20260508224547 | 53 | 7 | 3.0 | 5.0 | 0.00 | 0.00 | 0.00 | ||
| 20260508224144 | 53 | 4 | 4.0 | 8.0 | 0.00 | 0.00 | 0.00 | ||
| 20260508223743 | 53 | 16 | 2.0 | 6.0 | 0.00 | 0.00 | 0.00 | ||
| 20260508223342 | 53 | 346 | 1.0 | 4.0 | 0.00 | 0.00 | 0.00 | ||
| 20260508222941 | 53 | 7 | 3.0 | 6.0 | 0.00 | 0.00 | 0.00 | ||
| 20260508222538 | 53 | 14 | 3.0 | 6.0 | 0.00 | 0.00 | 0.00 | ||
| 20260508222136 | 53 | 5 | 3.0 | 5.0 | 0.00 | 0.00 | 0.00 | ||
| 20260508221735 | 53 | 2 | 2.0 | 5.0 | 0.00 | 0.00 | 0.00 | ||
| 20260508220931 | 54 | 1 | 3.0 | 7.0 | 0.00 | 0.00 | 0.00 | ||
| 20260508220523 | 54 | 0 | 1.0 | 4.0 | 0.00 | 0.00 | 0.00 | ||
| 20260508220121 | 54 | 0 | 0.0 | 2.0 | 0.00 | 0.00 | 0.00 | ||
| 20260508215720 | 54 | 0 | 1.0 | 2.0 | 0.00 | 0.00 | 0.00 | ||
| 20260508215319 | 54 | 0 | 1.0 | 3.0 | 0.00 | 0.00 | 0.00 | ||
| 20260508214916 | 54 | 0 | 0.0 | 2.0 | 0.00 | 0.00 | 0.00 | ||
| 20260508214515 | 54 | 0 | 0.0 | 1.0 | 0.00 | 0.00 | 0.00 | ||
| 20260508214114 | 54 | 0 | 0.0 | 2.0 | 0.00 | 0.00 | 0.00 | ||
| 20260508213713 | 54 | 0 | 0.0 | 0.0 | 0.00 | 0.00 | 0.00 | ||
| 20260508213310 | 54 | 0 | 0.0 | 0.0 | 0.00 | 0.00 | 0.00 | ||
| 20260508212909 | 54 | 0 | 0.0 | 1.0 | 0.00 | 0.00 | 0.00 | ||
| 20260508212501 | 54 | 0 | 1.0 | 3.0 | 0.00 | 0.00 | 0.00 | ||
| 20260508212059 | 54 | 2 | 2.0 | 4.0 | 0.00 | 0.00 | 0.00 | ||
| 20260508211657 | 54 | 21 | 2.0 | 3.0 | 0.00 | 0.00 | 0.00 | ||
| 20260508211256 | 54 | 21 | 2.0 | 3.0 | 0.00 | 0.00 | 0.00 | ||
| 20260508210854 | 54 | 21 | 1.0 | 3.0 | 0.00 | 0.00 | 0.00 | ||
| 20260508210453 | 54 | 21 | 1.0 | 2.0 | 0.00 | 0.00 | 0.00 | ||
| 20260508210050 | 54 | 21 | 2.0 | 3.0 | 0.00 | 0.00 | 0.00 | ||
| 20260508205248 | 54 | 21 | 1.0 | 2.0 | 0.00 | 0.00 | 0.00 | ||
| 20260508204846 | 54 | 21 | 2.0 | 2.0 | 0.00 | 0.00 | 0.00 | ||
| 20260508204438 | 54 | 34 | 3.0 | 4.0 | 0.00 | 0.00 | 0.00 | ||
| 20260508204035 | 54 | 45 | 2.0 | 4.0 | 0.00 | 0.00 | 0.00 | ||
| 20260508203634 | 54 | 45 | 2.0 | 5.0 | 0.00 | 0.00 | 0.00 | ||
| 20260508203233 | 54 | 45 | 1.0 | 3.0 | 0.00 | 0.00 | 0.00 | ||
| 20260508202831 | 54 | 45 | 1.0 | 2.0 | 0.00 | 0.00 | 0.00 | ||
| 20260508202429 | 54 | 45 | 1.0 | 3.0 | 0.00 | 0.00 | 0.00 | ||
| 20260508202027 | 54 | 45 | 1.0 | 2.0 | 0.00 | 0.00 | 0.00 | ||
| 20260508201626 | 55 | 45 | 1.0 | 2.0 | 0.00 | 0.00 | 0.00 | ||
| 20260508201225 | 55 | 45 | 0.0 | 1.0 | 0.00 | 0.00 | 0.00 | ||
| 20260508200822 | 54 | 45 | 0.0 | 0.0 | 0.00 | 0.00 | 0.00 | ||
| 20260508200414 | 54 | 45 | 1.0 | 2.0 | 0.00 | 0.00 | 0.00 | ||
| 20260508200012 | 54 | 45 | 0.0 | 0.0 | 0.00 | 0.00 | 0.00 | ||
| 20260508195611 | 54 | 45 | 2.0 | 4.0 | 0.00 | 0.00 | 0.00 | ||
| 20260508195209 | 54 | 45 | 0.0 | 0.0 | 0.00 | 0.00 | 0.00 | ||
| 20260508194807 | 54 | 45 | 0.0 | 0.0 | 0.00 | 0.00 | 0.00 | ||
| 20260508194406 | 54 | 45 | 0.0 | 2.0 | 0.00 | 0.00 | 0.00 | ||
| 20260508194004 | 55 | 45 | 1.0 | 3.0 | 0.00 | 0.00 | 0.00 | ||
| 20260508193603 | 55 | 45 | 2.0 | 4.0 | 0.00 | 0.00 | 0.00 | ||
| 20260508192759 | 54 | 45 | 1.0 | 4.0 | 0.00 | 0.00 | 0.00 | ||
| 20260508192351 | 54 | 45 | 1.0 | 3.0 | 0.00 | 0.00 | 0.00 | ||
| 20260508191949 | 54 | 31 | 2.0 | 5.0 | 0.00 | 0.00 | 0.00 | ||
| 20260508191146 | 54 | 21 | 3.0 | 5.0 | 0.00 | 0.00 | 0.00 | ||
| 20260508190744 | 55 | 14 | 3.0 | 4.0 | 0.00 | 0.00 | 0.00 | ||
| 20260508190343 | 55 | 0 | 2.0 | 5.0 | 0.00 | 0.00 | 0.00 | ||
| 20260508185940 | 55 | 0 | 1.0 | 4.0 | 0.00 | 0.00 | 0.00 | ||
| 20260508185539 | 55 | 0 | 2.0 | 4.0 | 0.00 | 0.00 | 0.00 | ||
| 20260508185138 | 55 | 14 | 1.0 | 4.0 | 0.00 | 0.00 | 0.00 | ||
| 20260508184736 | 55 | 13 | 2.0 | 4.0 | 0.00 | 0.00 | 0.00 | ||
| 20260508184327 | 55 | 10 | 2.0 | 4.0 | 0.00 | 0.00 | 0.00 | ||
| 20260508183925 | 55 | 0 | 0.0 | 0.0 | 0.00 | 0.00 | 0.00 | ||
| 20260508183524 | 55 | 0 | 2.0 | 4.0 | 0.00 | 0.00 | 0.00 | ||
| 20260508183123 | 55 | 21 | 1.0 | 3.0 | 0.00 | 0.00 | 0.00 | ||
| 20260508182721 | 55 | 21 | 1.0 | 3.0 | 0.00 | 0.00 | 0.00 | ||
| 20260508182319 | 55 | 41 | 4.0 | 6.0 | 0.00 | 0.00 | 0.00 | ||
| 20260508181917 | 55 | 45 | 1.0 | 3.0 | 0.00 | 0.00 | 0.00 | ||
| 20260508181516 | 55 | 45 | 0.0 | 0.0 | 0.00 | 0.00 | 0.00 | ||
| 20260508181115 | 55 | 45 | 1.0 | 4.0 | 0.00 | 0.00 | 0.00 | ||
| 20260508180712 | 55 | 45 | 1.0 | 4.0 | 0.00 | 0.00 | 0.00 | ||
| 20260508180304 | 56 | 45 | 2.0 | 4.0 | 0.00 | 0.00 | 0.00 | ||
| 20260508175902 | 56 | 45 | 3.0 | 4.0 | 0.00 | 0.00 | 0.00 | ||
| 20260508175501 | 56 | 67 | 1.0 | 4.0 | 0.00 | 0.00 | 0.00 | ||
| 20260508175059 | 55 | 67 | 2.0 | 4.0 | 0.00 | 0.00 | 0.00 | ||
| 20260508174658 | 55 | 67 | 2.0 | 5.0 | 0.00 | 0.00 | 0.00 | ||
| 20260508174257 | 56 | 67 | 2.0 | 4.0 | 0.00 | 0.00 | 0.00 | ||
| 20260508173855 | 56 | 64 | 1.0 | 3.0 | 0.00 | 0.00 | 0.00 | ||
| 20260508173453 | 56 | 45 | 4.0 | 6.0 | 0.00 | 0.00 | 0.00 | ||
| 20260508173052 | 56 | 45 | 3.0 | 6.0 | 0.00 | 0.00 | 0.00 | ||
| 20260508172650 | 56 | 45 | 2.0 | 5.0 | 0.00 | 0.00 | 0.00 | ||
| 20260508172242 | 56 | 45 | 2.0 | 5.0 | 0.00 | 0.00 | 0.00 | ||
| 20260508171840 | 56 | 45 | 5.0 | 7.0 | 0.00 | 0.00 | 0.00 | ||
| 20260508171438 | 57 | 45 | 2.0 | 3.0 | 0.00 | 0.00 | 0.00 | ||
| 20260508171037 | 57 | 45 | 1.0 | 2.0 | 0.00 | 0.00 | 0.00 | ||
| 20260508170635 | 57 | 45 | 3.0 | 5.0 | 0.00 | 0.00 | 0.00 | ||
| 20260508170234 | 57 | 18 | 2.0 | 5.0 | 0.00 | 0.00 | 0.00 | ||
| 20260508165831 | 57 | 18 | 4.0 | 6.0 | 0.00 | 0.00 | 0.00 | ||
| 20260508165430 | 57 | 16 | 4.0 | 8.0 | 0.00 | 0.00 | 0.00 | ||
| 20260508165029 | 57 | 24 | 5.0 | 7.0 | 0.00 | 0.00 | 0.00 | ||
| 20260508164627 | 57 | 13 | 3.0 | 7.0 | 0.00 | 0.00 | 0.00 | ||
| 20260508164218 | 57 | 41 | 2.0 | 5.0 | 0.00 | 0.00 | 0.00 | ||
| 20260508163816 | 57 | 12 | 3.0 | 9.0 | 0.00 | 0.00 | 0.00 | ||
| 20260508163415 | 57 | 19 | 6.0 | 9.0 | 0.00 | 0.00 | 0.00 | ||
| 20260508163014 | 57 | 19 | 6.0 | 10.0 | 0.00 | 0.00 | 0.00 | ||
| 20260508162610 | 57 | 1 | 5.0 | 8.0 | 0.00 | 0.00 | 0.00 | ||
| 20260508162209 | 58 | 3 | 4.0 | 8.0 | 0.00 | 0.00 | 0.00 | ||
| 20260508161806 | 58 | 8 | 3.0 | 7.0 | 0.00 | 0.00 | 0.00 | ||
| 20260508161405 | 58 | 350 | 3.0 | 5.0 | 0.00 | 0.00 | 0.00 | ||
| 20260508161004 | 58 | 2 | 3.0 | 7.0 | 0.00 | 0.00 | 0.00 | ||
| 20260508160601 | 58 | 343 | 4.0 | 7.0 | 0.00 | 0.00 | 0.00 | ||
| 20260508160153 | 58 | 14 | 2.0 | 7.0 | 0.00 | 0.00 | 0.00 | ||
| 20260508155752 | 58 | 21 | 3.0 | 6.0 | 0.00 | 0.00 | 0.00 | ||
| 20260508155351 | 58 | 24 | 4.0 | 8.0 | 0.00 | 0.00 | 0.00 | ||
| 20260508154948 | 57 | 28 | 5.0 | 8.0 | 0.00 | 0.00 | 0.00 | ||
| 20260508154547 | 58 | 16 | 4.0 | 9.0 | 0.00 | 0.00 | 0.00 |